Time,TemperatureF,DewpointF,PressureIn,WindDirection,WindDirectionDegrees,WindSpeedMPH,WindSpeedGustMPH,Humidity,HourlyPrecipIn,Conditions,Clouds,dailyrainin,SolarRadiationWatts/m^2,SoftwareType,DateUTC
2013-04-26 00:01:00,49.4,33.4,30.35,SE,137,0.0,1.0,54,0.00,,,0.00,0,Wunderground v.1.15,2013-04-26 04:01:00,
2013-04-26 00:02:00,49.3,33.3,30.35,SE,137,1.0,1.0,54,0.00,,,0.00,0,Wunderground v.1.15,2013-04-26 04:02:00,
2013-04-26 00:05:00,49.1,33.2,30.35,SE,137,0.0,1.0,54,0.00,,,0.00,0,Wunderground v.1.15,2013-04-26 04:05:00,
2013-04-26 00:06:00,49.0,33.5,30.35,SE,137,0.0,1.0,55,0.00,,,0.00,0,Wunderground v.1.15,2013-04-26 04:06:00,
2013-04-26 00:11:00,48.6,33.1,30.35,SW,219,1.0,1.0,55,0.00,,,0.00,0,Wunderground v.1.15,2013-04-26 04:11:00,
2013-04-26 00:17:00,48.4,33.0,30.35,SW,229,1.0,1.0,55,0.00,,,0.00,0,Wunderground v.1.15,2013-04-26 04:17:00,
2013-04-26 00:22:00,48.8,30.0,30.35,West,275,1.0,5.0,48,0.00,,,0.00,0,Wunderground v.1.15,2013-04-26 04:22:00,
2013-04-26 00:28:00,49.1,33.2,30.36,SW,227,2.0,5.0,54,0.00,,,0.00,0,Wunderground v.1.15,2013-04-26 04:28:00,
2013-04-26 00:34:00,48.4,33.0,30.36,WSW,252,1.0,2.0,55,0.00,,,0.00,0,Wunderground v.1.15,2013-04-26 04:34:00,
2013-04-26 00:39:00,48.3,32.4,30.36,West,268,1.0,2.0,54,0.00,,,0.00,0,Wunderground v.1.15,2013-04-26 04:39:00,
2013-04-26 00:45:00,48.4,31.1,30.36,WNW,296,1.0,6.0,51,0.00,,,0.00,0,Wunderground v.1.15,2013-04-26 04:45:00,
2013-04-26 00:50:00,49.3,30.9,30.36,WNW,302,3.0,3.0,49,0.00,,,0.00,0,Wunderground v.1.15,2013-04-26 04:50:00,
2013-04-26 00:55:00,50.1,30.6,30.36,WNW,290,4.0,6.0,47,0.00,,,0.00,0,Wunderground v.1.15,2013-04-26 04:55:00,
2013-04-26 01:00:00,50.2,31.2,30.37,WNW,285,3.0,4.0,48,0.00,,,0.00,0,Wunderground v.1.15,2013-04-26 05:00:00,
2013-04-26 01:06:00,49.3,33.3,30.37,South,180,2.0,4.0,54,0.00,,,0.00,0,Wunderground v.1.15,2013-04-26 05:06:00,
2013-04-26 01:12:00,48.3,33.3,30.37,WNW,289,1.0,5.0,56,0.00,,,0.00,0,Wunderground v.1.15,2013-04-26 05:12:00,
2013-04-26 01:18:00,47.9,32.0,30.38,WNW,294,3.0,5.0,54,0.00,,,0.00,0,Wunderground v.1.15,2013-04-26 05:18:00,
2013-04-26 01:24:00,48.4,31.6,30.38,WNW,298,3.0,6.0,52,0.00,,,0.00,0,Wunderground v.1.15,2013-04-26 05:24:00,
2013-04-26 01:30:00,48.9,32.0,30.38,West,273,4.0,4.0,52,0.00,,,0.00,0,Wunderground v.1.15,2013-04-26 05:30:00,
2013-04-26 01:35:00,49.0,32.1,30.38,WNW,286,4.0,5.0,52,0.00,,,0.00,0,Wunderground v.1.15,2013-04-26 05:35:00,
2013-04-26 01:41:00,49.0,32.6,30.38,NW,304,3.0,4.0,53,0.00,,,0.00,0,Wunderground v.1.15,2013-04-26 05:41:00,
2013-04-26 01:47:00,48.9,32.5,30.38,WNW,291,3.0,5.0,53,0.00,,,0.00,0,Wunderground v.1.15,2013-04-26 05:47:00,
2013-04-26 01:53:00,48.8,32.9,30.38,WNW,292,4.0,4.0,54,0.00,,,0.00,0,Wunderground v.1.15,2013-04-26 05:53:00,
2013-04-26 01:59:00,48.6,33.1,30.38,WNW,291,3.0,5.0,55,0.00,,,0.00,0,Wunderground v.1.15,2013-04-26 05:59:00,
2013-04-26 02:05:00,48.5,33.5,30.39,WNW,283,2.0,3.0,56,0.00,,,0.00,0,Wunderground v.1.15,2013-04-26 06:05:00,
2013-04-26 02:11:00,48.3,33.3,30.39,WNW,286,2.0,2.0,56,0.00,,,0.00,0,Wunderground v.1.15,2013-04-26 06:11:00,
2013-04-26 02:17:00,48.1,33.6,30.39,WNW,290,2.0,5.0,57,0.00,,,0.00,0,Wunderground v.1.15,2013-04-26 06:17:00,
2013-04-26 02:22:00,47.9,33.8,30.39,WNW,286,2.0,2.0,58,0.00,,,0.00,0,Wunderground v.1.15,2013-04-26 06:22:00,
2013-04-26 02:27:00,47.7,34.1,30.40,WNW,285,2.0,2.0,59,0.00,,,0.00,0,Wunderground v.1.15,2013-04-26 06:27:00,
2013-04-26 02:33:00,47.6,34.0,30.39,WNW,285,1.0,2.0,59,0.00,,,0.00,0,Wunderground v.1.15,2013-04-26 06:33:00,
2013-04-26 02:39:00,47.2,34.0,30.39,West,275,0.0,2.0,60,0.00,,,0.00,0,Wunderground v.1.15,2013-04-26 06:39:00,
2013-04-26 02:45:00,47.0,34.2,30.39,West,275,0.0,1.0,61,0.00,,,0.00,0,Wunderground v.1.15,2013-04-26 06:45:00,
2013-04-26 02:50:00,46.8,34.5,30.39,West,275,0.0,1.0,62,0.00,,,0.00,0,Wunderground v.1.15,2013-04-26 06:50:00,
2013-04-26 02:56:00,46.6,34.7,30.39,West,275,0.0,1.0,63,0.00,,,0.00,0,Wunderground v.1.15,2013-04-26 06:56:00,
2013-04-26 03:02:00,46.2,34.3,30.39,West,275,1.0,1.0,63,0.00,,,0.00,0,Wunderground v.1.15,2013-04-26 07:02:00,
2013-04-26 03:08:00,46.0,34.5,30.39,West,275,1.0,1.0,64,0.00,,,0.00,0,Wunderground v.1.15,2013-04-26 07:08:00,
2013-04-26 03:14:00,45.9,34.8,30.40,West,275,1.0,1.0,65,0.00,,,0.00,0,Wunderground v.1.15,2013-04-26 07:14:00,
2013-04-26 03:20:00,46.0,35.3,30.40,NW,311,1.0,1.0,66,0.00,,,0.00,0,Wunderground v.1.15,2013-04-26 07:20:00,
2013-04-26 03:26:00,46.3,35.2,30.40,NW,317,1.0,2.0,65,0.00,,,0.00,0,Wunderground v.1.15,2013-04-26 07:26:00,
2013-04-26 03:31:00,46.4,35.3,30.40,NW,319,1.0,2.0,65,0.00,,,0.00,0,Wunderground v.1.15,2013-04-26 07:31:00,
2013-04-26 03:36:00,46.6,35.1,30.40,WNW,298,1.0,2.0,64,0.00,,,0.00,0,Wunderground v.1.15,2013-04-26 07:36:00,
2013-04-26 03:41:00,46.8,35.3,30.40,WNW,299,1.0,2.0,64,0.00,,,0.00,0,Wunderground v.1.15,2013-04-26 07:41:00,
2013-04-26 03:47:00,47.0,35.4,30.40,NNW,337,2.0,3.0,64,0.00,,,0.00,0,Wunderground v.1.15,2013-04-26 07:47:00,
2013-04-26 03:53:00,46.8,34.9,30.40,West,277,2.0,5.0,63,0.00,,,0.00,0,Wunderground v.1.15,2013-04-26 07:53:00,
2013-04-26 03:58:00,46.5,34.6,30.40,WNW,302,3.0,5.0,63,0.00,,,0.00,0,Wunderground v.1.15,2013-04-26 07:58:00,
2013-04-26 04:03:00,46.2,34.3,30.40,WNW,303,4.0,8.0,63,0.00,,,0.00,0,Wunderground v.1.15,2013-04-26 08:03:00,
2013-04-26 04:09:00,46.2,34.3,30.41,NW,312,6.0,8.0,63,0.00,,,0.00,0,Wunderground v.1.15,2013-04-26 08:09:00,
2013-04-26 04:15:00,46.1,34.2,30.41,WNW,298,5.0,6.0,63,0.00,,,0.00,0,Wunderground v.1.15,2013-04-26 08:15:00,
2013-04-26 04:21:00,46.0,34.5,30.42,WNW,293,4.0,5.0,64,0.00,,,0.00,0,Wunderground v.1.15,2013-04-26 08:21:00,
2013-04-26 04:27:00,45.9,34.8,30.42,NW,323,3.0,5.0,65,0.00,,,0.00,0,Wunderground v.1.15,2013-04-26 08:27:00,
2013-04-26 04:32:00,45.8,34.7,30.42,WNW,302,3.0,3.0,65,0.00,,,0.00,0,Wunderground v.1.15,2013-04-26 08:32:00,
2013-04-26 04:38:00,45.6,34.5,30.42,NW,322,2.0,4.0,65,0.00,,,0.00,0,Wunderground v.1.15,2013-04-26 08:38:00,
2013-04-26 04:44:00,45.4,34.7,30.43,NW,317,2.0,2.0,66,0.00,,,0.00,0,Wunderground v.1.15,2013-04-26 08:44:00,
2013-04-26 04:50:00,45.1,34.8,30.43,WNW,298,2.0,2.0,67,0.00,,,0.00,0,Wunderground v.1.15,2013-04-26 08:50:00,
2013-04-26 04:55:00,45.1,34.8,30.43,NW,305,3.0,6.0,67,0.00,,,0.00,0,Wunderground v.1.15,2013-04-26 08:55:00,
2013-04-26 05:00:00,45.1,35.2,30.43,NW,317,4.0,4.0,68,0.00,,,0.00,0,Wunderground v.1.15,2013-04-26 09:00:00,
2013-04-26 05:06:00,44.9,35.0,30.43,NW,306,4.0,5.0,68,0.00,,,0.00,0,Wunderground v.1.15,2013-04-26 09:06:00,
2013-04-26 05:11:00,44.7,35.1,30.44,NW,315,3.0,4.0,69,0.00,,,0.00,0,Wunderground v.1.15,2013-04-26 09:11:00,
2013-04-26 05:17:00,44.6,35.1,30.43,NW,316,2.0,4.0,69,0.00,,,0.00,0,Wunderground v.1.15,2013-04-26 09:17:00,
2013-04-26 05:23:00,44.5,35.0,30.44,NW,304,3.0,5.0,69,0.00,,,0.00,0,Wunderground v.1.15,2013-04-26 09:23:00,
2013-04-26 05:29:00,44.5,35.0,30.44,WNW,290,4.0,7.0,69,0.00,,,0.00,0,Wunderground v.1.15,2013-04-26 09:29:00,
2013-04-26 05:34:00,44.6,35.4,30.44,West,277,5.0,8.0,70,0.00,,,0.00,0,Wunderground v.1.15,2013-04-26 09:34:00,
2013-04-26 05:40:00,44.6,35.4,30.45,WNW,286,5.0,7.0,70,0.00,,,0.00,0,Wunderground v.1.15,2013-04-26 09:40:00,
2013-04-26 05:45:00,44.6,35.4,30.45,WNW,294,5.0,7.0,70,0.00,,,0.00,0,Wunderground v.1.15,2013-04-26 09:45:00,
2013-04-26 05:51:00,44.7,35.5,30.45,NW,305,5.0,6.0,70,0.00,,,0.00,0,Wunderground v.1.15,2013-04-26 09:51:00,
2013-04-26 05:57:00,44.7,35.9,30.46,NW,311,5.0,6.0,71,0.00,,,0.00,0,Wunderground v.1.15,2013-04-26 09:57:00,
2013-04-26 06:02:00,44.6,35.4,30.46,WNW,294,3.0,4.0,70,0.00,,,0.00,0,Wunderground v.1.15,2013-04-26 10:02:00,
2013-04-26 06:08:00,44.3,35.5,30.46,WNW,293,2.0,4.0,71,0.00,,,0.00,0,Wunderground v.1.15,2013-04-26 10:08:00,
2013-04-26 06:13:00,44.1,35.6,30.47,WNW,299,1.0,2.0,72,0.00,,,0.00,5,Wunderground v.1.15,2013-04-26 10:13:00,
2013-04-26 06:19:00,43.8,35.4,30.47,NW,304,2.0,4.0,72,0.00,,,0.00,9,Wunderground v.1.15,2013-04-26 10:19:00,
2013-04-26 06:25:00,43.5,35.4,30.47,WNW,298,3.0,4.0,73,0.00,,,0.00,11,Wunderground v.1.15,2013-04-26 10:25:00,
2013-04-26 06:30:00,43.5,35.8,30.47,WNW,301,3.0,4.0,74,0.00,,,0.00,14,Wunderground v.1.15,2013-04-26 10:30:00,
2013-04-26 06:35:00,43.6,35.9,30.48,WNW,300,4.0,4.0,74,0.00,,,0.00,18,Wunderground v.1.15,2013-04-26 10:35:00,
2013-04-26 06:41:00,43.6,35.9,30.48,WNW,294,3.0,4.0,74,0.00,,,0.00,23,Wunderground v.1.15,2013-04-26 10:41:00,
2013-04-26 06:47:00,43.4,35.7,30.48,WNW,298,3.0,4.0,74,0.00,,,0.00,26,Wunderground v.1.15,2013-04-26 10:47:00,
2013-04-26 06:53:00,43.4,35.7,30.48,NNW,340,2.0,4.0,74,0.00,,,0.00,30,Wunderground v.1.15,2013-04-26 10:53:00,
2013-04-26 06:59:00,43.3,35.9,30.49,North,351,2.0,5.0,75,0.00,,,0.00,33,Wunderground v.1.15,2013-04-26 10:59:00,
2013-04-26 07:04:00,43.4,35.7,30.49,WNW,299,3.0,4.0,74,0.00,,,0.00,35,Wunderground v.1.15,2013-04-26 11:04:00,
2013-04-26 07:10:00,43.5,35.8,30.49,NW,321,4.0,4.0,74,0.00,,,0.00,39,Wunderground v.1.15,2013-04-26 11:10:00,
2013-04-26 07:16:00,43.8,36.0,30.49,NNW,329,3.0,4.0,74,0.00,,,0.00,40,Wunderground v.1.15,2013-04-26 11:16:00,
2013-04-26 07:22:00,44.0,36.2,30.50,NW,311,2.0,4.0,74,0.00,,,0.00,44,Wunderground v.1.15,2013-04-26 11:22:00,
2013-04-26 07:27:00,44.1,36.3,30.50,WNW,293,2.0,5.0,74,0.00,,,0.00,47,Wunderground v.1.15,2013-04-26 11:27:00,
2013-04-26 07:33:00,44.2,36.4,30.50,NW,309,3.0,3.0,74,0.00,,,0.00,51,Wunderground v.1.15,2013-04-26 11:33:00,
2013-04-26 07:39:00,44.3,36.2,30.50,North,5,2.0,4.0,73,0.00,,,0.00,53,Wunderground v.1.15,2013-04-26 11:39:00,
2013-04-26 07:44:00,44.4,36.3,30.50,NW,321,2.0,2.0,73,0.00,,,0.00,54,Wunderground v.1.15,2013-04-26 11:44:00,
2013-04-26 07:50:00,44.7,35.9,30.50,WNW,290,2.0,3.0,71,0.00,,,0.00,58,Wunderground v.1.15,2013-04-26 11:50:00,
2013-04-26 07:55:00,45.0,35.8,30.50,North,5,3.0,5.0,70,0.00,,,0.00,100,Wunderground v.1.15,2013-04-26 11:55:00,
2013-04-26 08:00:00,45.4,35.8,30.51,NW,314,3.0,3.0,69,0.00,,,0.00,107,Wunderground v.1.15,2013-04-26 12:00:00,
2013-04-26 08:06:00,45.8,35.5,30.51,NE,34,2.0,3.0,67,0.00,,,0.00,63,Wunderground v.1.15,2013-04-26 12:06:00,
2013-04-26 08:12:00,46.0,34.9,30.51,WNW,288,3.0,7.0,65,0.00,,,0.00,320,Wunderground v.1.15,2013-04-26 12:12:00,
2013-04-26 08:18:00,46.4,34.9,30.51,ENE,62,4.0,7.0,64,0.00,,,0.00,345,Wunderground v.1.15,2013-04-26 12:18:00,
2013-04-26 08:24:00,47.0,35.0,30.51,NW,318,3.0,7.0,63,0.00,,,0.00,366,Wunderground v.1.15,2013-04-26 12:24:00,
2013-04-26 08:29:00,47.3,34.1,30.51,NNW,342,3.0,7.0,60,0.00,,,0.00,385,Wunderground v.1.15,2013-04-26 12:29:00,
2013-04-26 08:35:00,47.6,33.5,30.52,North,351,4.0,5.0,58,0.00,,,0.00,410,Wunderground v.1.15,2013-04-26 12:35:00,
2013-04-26 08:41:00,47.9,32.9,30.51,NNW,347,4.0,4.0,56,0.00,,,0.00,429,Wunderground v.1.15,2013-04-26 12:41:00,
2013-04-26 08:46:00,48.3,33.3,30.52,North,355,3.0,4.0,56,0.00,,,0.00,446,Wunderground v.1.15,2013-04-26 12:46:00,
2013-04-26 08:52:00,48.5,32.6,30.52,WNW,288,3.0,4.0,54,0.00,,,0.00,469,Wunderground v.1.15,2013-04-26 12:52:00,
2013-04-26 08:57:00,48.8,32.4,30.52,WNW,300,3.0,4.0,53,0.00,,,0.00,485,Wunderground v.1.15,2013-04-26 12:57:00,
2013-04-26 09:03:00,48.9,32.5,30.52,WNW,301,3.0,4.0,53,0.00,,,0.00,501,Wunderground v.1.15,2013-04-26 13:03:00,
2013-04-26 09:09:00,49.0,33.1,30.52,NW,315,3.0,5.0,54,0.00,,,0.00,517,Wunderground v.1.15,2013-04-26 13:09:00,
2013-04-26 09:15:00,49.1,32.7,30.52,WNW,297,3.0,5.0,53,0.00,,,0.00,538,Wunderground v.1.15,2013-04-26 13:15:00,
2013-04-26 09:21:00,49.4,32.0,30.52,East,87,4.0,4.0,51,0.00,,,0.00,555,Wunderground v.1.15,2013-04-26 13:21:00,
2013-04-26 09:27:00,49.6,32.2,30.52,WNW,286,4.0,7.0,51,0.00,,,0.00,578,Wunderground v.1.15,2013-04-26 13:27:00,
2013-04-26 09:32:00,49.5,32.1,30.52,NNW,335,4.0,6.0,51,0.00,,,0.00,587,Wunderground v.1.15,2013-04-26 13:32:00,
2013-04-26 09:37:00,49.8,30.9,30.52,NNW,335,4.0,6.0,48,0.00,,,0.00,610,Wunderground v.1.15,2013-04-26 13:37:00,
2013-04-26 09:43:00,49.9,32.0,30.52,WSW,243,3.0,4.0,50,0.00,,,0.00,626,Wunderground v.1.15,2013-04-26 13:43:00,
2013-04-26 09:49:00,50.5,31.5,30.52,WNW,284,3.0,5.0,48,0.00,,,0.00,643,Wunderground v.1.15,2013-04-26 13:49:00,
2013-04-26 09:55:00,50.6,30.0,30.52,NNW,347,4.0,7.0,45,0.00,,,0.00,659,Wunderground v.1.15,2013-04-26 13:55:00,
2013-04-26 10:00:00,50.5,29.9,30.51,West,261,5.0,5.0,45,0.00,,,0.00,673,Wunderground v.1.15,2013-04-26 14:00:00,
2013-04-26 10:06:00,50.9,29.2,30.51,WNW,282,5.0,8.0,43,0.00,,,0.00,687,Wunderground v.1.15,2013-04-26 14:06:00,
2013-04-26 10:12:00,50.8,29.6,30.52,West,274,6.0,7.0,44,0.00,,,0.00,698,Wunderground v.1.15,2013-04-26 14:12:00,
2013-04-26 10:17:00,50.7,29.6,30.52,NW,310,6.0,7.0,44,0.00,,,0.00,715,Wunderground v.1.15,2013-04-26 14:17:00,
2013-04-26 10:23:00,50.8,29.6,30.52,NNW,336,4.0,5.0,44,0.00,,,0.00,740,Wunderground v.1.15,2013-04-26 14:23:00,
2013-04-26 10:29:00,51.3,30.7,30.52,NW,320,3.0,6.0,45,0.00,,,0.00,737,Wunderground v.1.15,2013-04-26 14:29:00,
2013-04-26 10:34:00,51.7,29.9,30.52,NE,34,2.0,5.0,43,0.00,,,0.00,765,Wunderground v.1.15,2013-04-26 14:34:00,
2013-04-26 10:40:00,51.8,29.4,30.52,NW,321,3.0,3.0,42,0.00,,,0.00,773,Wunderground v.1.15,2013-04-26 14:40:00,
2013-04-26 10:45:00,51.9,30.1,30.52,NW,306,3.0,6.0,43,0.00,,,0.00,795,Wunderground v.1.15,2013-04-26 14:45:00,
2013-04-26 10:51:00,52.1,29.7,30.52,WNW,294,5.0,11.0,42,0.00,,,0.00,803,Wunderground v.1.15,2013-04-26 14:51:00,
2013-04-26 10:57:00,52.0,29.0,30.52,South,169,5.0,11.0,41,0.00,,,0.00,823,Wunderground v.1.15,2013-04-26 14:57:00,
2013-04-26 11:02:00,52.3,30.4,30.52,West,265,3.0,5.0,43,0.00,,,0.00,824,Wunderground v.1.15,2013-04-26 15:02:00,
2013-04-26 11:07:00,53.0,29.3,30.52,East,92,2.0,5.0,40,0.00,,,0.00,826,Wunderground v.1.15,2013-04-26 15:07:00,
2013-04-26 11:13:00,53.0,28.7,30.51,NW,313,3.0,6.0,39,0.00,,,0.00,842,Wunderground v.1.15,2013-04-26 15:13:00,
2013-04-26 11:19:00,53.1,29.4,30.52,NW,306,4.0,7.0,40,0.00,,,0.00,846,Wunderground v.1.15,2013-04-26 15:19:00,
2013-04-26 11:24:00,53.2,29.5,30.52,East,96,4.0,5.0,40,0.00,,,0.00,863,Wunderground v.1.15,2013-04-26 15:24:00,
2013-04-26 11:29:00,53.2,28.9,30.52,West,281,3.0,6.0,39,0.00,,,0.00,884,Wunderground v.1.15,2013-04-26 15:29:00,
2013-04-26 11:35:00,53.5,30.4,30.52,West,280,2.0,4.0,41,0.00,,,0.00,886,Wunderground v.1.15,2013-04-26 15:35:00,
2013-04-26 11:41:00,53.2,28.9,30.51,SE,131,3.0,7.0,39,0.00,,,0.00,879,Wunderground v.1.15,2013-04-26 15:41:00,
2013-04-26 11:47:00,53.3,31.4,30.51,NW,317,6.0,8.0,43,0.00,,,0.00,875,Wunderground v.1.15,2013-04-26 15:47:00,
2013-04-26 11:53:00,54.3,31.1,30.51,WNW,284,5.0,7.0,41,0.00,,,0.00,889,Wunderground v.1.15,2013-04-26 15:53:00,
2013-04-26 11:59:00,54.5,30.6,30.51,NW,313,5.0,7.0,40,0.00,,,0.00,898,Wunderground v.1.15,2013-04-26 15:59:00,
2013-04-26 12:04:00,54.3,29.2,30.51,WNW,300,4.0,5.0,38,0.00,,,0.00,905,Wunderground v.1.15,2013-04-26 16:04:00,
2013-04-26 12:10:00,54.8,32.7,30.51,WNW,288,2.0,2.0,43,0.00,,,0.00,902,Wunderground v.1.15,2013-04-26 16:10:00,
2013-04-26 12:16:00,55.5,30.3,30.50,WNW,295,3.0,7.0,38,0.00,,,0.00,916,Wunderground v.1.15,2013-04-26 16:16:00,
2013-04-26 12:21:00,55.1,29.3,30.50,North,11,4.0,5.0,37,0.00,,,0.00,914,Wunderground v.1.15,2013-04-26 16:21:00,
2013-04-26 12:27:00,55.2,30.0,30.50,SE,130,4.0,7.0,38,0.00,,,0.00,921,Wunderground v.1.15,2013-04-26 16:27:00,
2013-04-26 12:33:00,55.0,29.2,30.50,ESE,118,4.0,5.0,37,0.00,,,0.00,930,Wunderground v.1.15,2013-04-26 16:33:00,
2013-04-26 12:39:00,55.1,29.3,30.50,ENE,76,4.0,9.0,37,0.00,,,0.00,926,Wunderground v.1.15,2013-04-26 16:39:00,
2013-04-26 12:45:00,55.4,31.5,30.50,NW,310,4.0,7.0,40,0.00,,,0.00,926,Wunderground v.1.15,2013-04-26 16:45:00,
2013-04-26 12:51:00,55.3,28.8,30.49,WNW,292,4.0,4.0,36,0.00,,,0.00,925,Wunderground v.1.15,2013-04-26 16:51:00,
2013-04-26 12:57:00,55.5,29.6,30.49,North,360,4.0,6.0,37,0.00,,,0.00,925,Wunderground v.1.15,2013-04-26 16:57:00,
2013-04-26 13:03:00,55.8,29.2,30.49,WNW,284,4.0,5.0,36,0.00,,,0.00,930,Wunderground v.1.15,2013-04-26 17:03:00,
2013-04-26 13:08:00,55.9,30.6,30.48,West,275,3.0,6.0,38,0.00,,,0.00,926,Wunderground v.1.15,2013-04-26 17:08:00,
2013-04-26 13:14:00,56.4,30.4,30.48,WNW,284,4.0,5.0,37,0.00,,,0.00,923,Wunderground v.1.15,2013-04-26 17:14:00,
2013-04-26 13:19:00,56.6,30.6,30.48,WNW,292,4.0,7.0,37,0.00,,,0.00,921,Wunderground v.1.15,2013-04-26 17:19:00,
2013-04-26 13:25:00,56.9,29.5,30.48,North,355,5.0,7.0,35,0.00,,,0.00,916,Wunderground v.1.15,2013-04-26 17:25:00,
2013-04-26 13:31:00,57.4,29.2,30.48,WNW,292,6.0,7.0,34,0.00,,,0.00,882,Wunderground v.1.15,2013-04-26 17:31:00,
2013-04-26 13:37:00,57.4,28.5,30.48,WNW,299,5.0,7.0,33,0.00,,,0.00,900,Wunderground v.1.15,2013-04-26 17:37:00,
2013-04-26 13:42:00,57.1,27.5,30.47,SE,132,4.0,8.0,32,0.00,,,0.00,889,Wunderground v.1.15,2013-04-26 17:42:00,
2013-04-26 13:48:00,57.3,26.1,30.48,NNW,327,4.0,9.0,30,0.00,,,0.00,882,Wunderground v.1.15,2013-04-26 17:48:00,
2013-04-26 13:54:00,57.4,28.5,30.47,WNW,296,5.0,7.0,33,0.00,,,0.00,896,Wunderground v.1.15,2013-04-26 17:54:00,
2013-04-26 14:00:00,57.9,27.4,30.47,WSW,254,5.0,5.0,31,0.00,,,0.00,891,Wunderground v.1.15,2013-04-26 18:00:00,
2013-04-26 14:05:00,57.7,28.0,30.47,East,84,4.0,5.0,32,0.00,,,0.00,872,Wunderground v.1.15,2013-04-26 18:05:00,
2013-04-26 14:11:00,58.4,27.1,30.47,ESE,104,2.0,4.0,30,0.00,,,0.00,826,Wunderground v.1.15,2013-04-26 18:11:00,
2013-04-26 14:17:00,58.5,28.7,30.47,WNW,290,3.0,7.0,32,0.00,,,0.00,853,Wunderground v.1.15,2013-04-26 18:17:00,
2013-04-26 14:23:00,59.0,27.6,30.46,WNW,283,5.0,7.0,30,0.00,,,0.00,853,Wunderground v.1.15,2013-04-26 18:23:00,
2013-04-26 14:29:00,59.1,28.5,30.46,WNW,294,5.0,7.0,31,0.00,,,0.00,793,Wunderground v.1.15,2013-04-26 18:29:00,
2013-04-26 14:34:00,59.5,27.2,30.46,NNW,338,4.0,5.0,29,0.00,,,0.00,737,Wunderground v.1.15,2013-04-26 18:34:00,
2013-04-26 14:40:00,59.4,28.7,30.46,NW,313,4.0,10.0,31,0.00,,,0.00,844,Wunderground v.1.15,2013-04-26 18:40:00,
2013-04-26 14:46:00,59.5,27.2,30.46,NW,311,5.0,10.0,29,0.00,,,0.00,821,Wunderground v.1.15,2013-04-26 18:46:00,
2013-04-26 14:52:00,59.4,26.2,30.46,East,90,6.0,8.0,28,0.00,,,0.00,780,Wunderground v.1.15,2013-04-26 18:52:00,
2013-04-26 14:58:00,58.8,25.7,30.46,West,279,6.0,10.0,28,0.00,,,0.00,745,Wunderground v.1.15,2013-04-26 18:58:00,
2013-04-26 15:04:00,59.3,25.3,30.46,WNW,292,6.0,8.0,27,0.00,,,0.00,763,Wunderground v.1.15,2013-04-26 19:04:00,
2013-04-26 15:09:00,59.4,26.2,30.46,North,9,5.0,9.0,28,0.00,,,0.00,705,Wunderground v.1.15,2013-04-26 19:09:00,
2013-04-26 15:15:00,59.2,26.1,30.45,WNW,302,4.0,6.0,28,0.00,,,0.00,666,Wunderground v.1.15,2013-04-26 19:15:00,
2013-04-26 15:21:00,59.2,26.1,30.45,WNW,302,5.0,7.0,28,0.00,,,0.00,638,Wunderground v.1.15,2013-04-26 19:21:00,
2013-04-26 15:27:00,59.2,26.1,30.45,WNW,297,5.0,7.0,28,0.00,,,0.00,733,Wunderground v.1.15,2013-04-26 19:27:00,
2013-04-26 15:33:00,59.8,25.7,30.45,West,270,5.0,7.0,27,0.00,,,0.00,668,Wunderground v.1.15,2013-04-26 19:33:00,
2013-04-26 15:39:00,59.9,25.8,30.45,WNW,303,5.0,7.0,27,0.00,,,0.00,708,Wunderground v.1.15,2013-04-26 19:39:00,
2013-04-26 15:44:00,60.6,25.5,30.44,North,355,4.0,6.0,26,0.00,,,0.00,700,Wunderground v.1.15,2013-04-26 19:44:00,
2013-04-26 15:50:00,60.8,24.7,30.45,NW,305,4.0,6.0,25,0.00,,,0.00,705,Wunderground v.1.15,2013-04-26 19:50:00,
2013-04-26 15:56:00,60.7,24.6,30.45,NW,312,4.0,6.0,25,0.00,,,0.00,684,Wunderground v.1.15,2013-04-26 19:56:00,
2013-04-26 16:02:00,61.1,23.0,30.44,West,281,4.0,6.0,23,0.00,,,0.00,664,Wunderground v.1.15,2013-04-26 20:02:00,
2013-04-26 16:07:00,61.0,23.9,30.44,NNW,336,4.0,7.0,24,0.00,,,0.00,647,Wunderground v.1.15,2013-04-26 20:07:00,
2013-04-26 16:13:00,61.2,26.0,30.44,ESE,121,3.0,6.0,26,0.00,,,0.00,635,Wunderground v.1.15,2013-04-26 20:13:00,
2013-04-26 16:19:00,60.8,24.7,30.44,North,350,5.0,9.0,25,0.00,,,0.00,622,Wunderground v.1.15,2013-04-26 20:19:00,
2013-04-26 16:24:00,60.5,25.4,30.44,NW,318,5.0,9.0,26,0.00,,,0.00,606,Wunderground v.1.15,2013-04-26 20:24:00,
2013-04-26 16:30:00,60.6,22.6,30.44,South,188,4.0,4.0,23,0.00,,,0.00,591,Wunderground v.1.15,2013-04-26 20:30:00,
2013-04-26 16:36:00,60.7,23.7,30.44,WSW,240,3.0,5.0,24,0.00,,,0.00,573,Wunderground v.1.15,2013-04-26 20:36:00,
2013-04-26 16:42:00,60.5,24.5,30.44,WNW,288,4.0,12.0,25,0.00,,,0.00,554,Wunderground v.1.15,2013-04-26 20:42:00,
2013-04-26 16:47:00,60.7,22.6,30.44,West,276,4.0,12.0,23,0.00,,,0.00,538,Wunderground v.1.15,2013-04-26 20:47:00,
2013-04-26 16:53:00,60.7,25.6,30.43,WNW,283,3.0,5.0,26,0.00,,,0.00,520,Wunderground v.1.15,2013-04-26 20:53:00,
2013-04-26 16:59:00,60.5,23.5,30.43,SE,144,4.0,6.0,24,0.00,,,0.00,274,Wunderground v.1.15,2013-04-26 20:59:00,
2013-04-26 17:05:00,60.5,23.5,30.43,West,273,3.0,4.0,24,0.00,,,0.00,478,Wunderground v.1.15,2013-04-26 21:05:00,
2013-04-26 17:10:00,60.8,24.7,30.43,SW,236,3.0,3.0,25,0.00,,,0.00,464,Wunderground v.1.15,2013-04-26 21:10:00,
2013-04-26 17:16:00,61.0,23.9,30.44,West,273,4.0,8.0,24,0.00,,,0.00,446,Wunderground v.1.15,2013-04-26 21:16:00,
2013-04-26 17:21:00,60.6,23.6,30.44,NW,308,5.0,9.0,24,0.00,,,0.00,339,Wunderground v.1.15,2013-04-26 21:21:00,
2013-04-26 17:27:00,60.4,23.4,30.44,West,277,5.0,9.0,24,0.00,,,0.00,49,Wunderground v.1.15,2013-04-26 21:27:00,
2013-04-26 17:33:00,60.7,23.7,30.44,WNW,298,3.0,4.0,24,0.00,,,0.00,47,Wunderground v.1.15,2013-04-26 21:33:00,
2013-04-26 17:39:00,60.8,25.7,30.44,NW,312,3.0,8.0,26,0.00,,,0.00,47,Wunderground v.1.15,2013-04-26 21:39:00,
2013-04-26 17:45:00,61.0,24.9,30.44,WNW,298,5.0,6.0,25,0.00,,,0.00,49,Wunderground v.1.15,2013-04-26 21:45:00,
2013-04-26 17:51:00,60.9,22.8,30.43,WSW,252,4.0,4.0,23,0.00,,,0.00,46,Wunderground v.1.15,2013-04-26 21:51:00,
2013-04-26 17:56:00,60.8,23.7,30.43,NNW,347,4.0,5.0,24,0.00,,,0.00,53,Wunderground v.1.15,2013-04-26 21:56:00,
2013-04-26 18:02:00,60.8,25.7,30.43,WNW,290,5.0,5.0,26,0.00,,,0.00,47,Wunderground v.1.15,2013-04-26 22:02:00,
2013-04-26 18:08:00,61.0,23.9,30.44,WSW,257,3.0,5.0,24,0.00,,,0.00,47,Wunderground v.1.15,2013-04-26 22:08:00,
2013-04-26 18:14:00,60.8,22.7,30.44,SE,131,3.0,7.0,23,0.00,,,0.00,40,Wunderground v.1.15,2013-04-26 22:14:00,
2013-04-26 18:20:00,60.4,21.3,30.43,SE,132,4.0,4.0,22,0.00,,,0.00,47,Wunderground v.1.15,2013-04-26 22:20:00,
2013-04-26 18:26:00,60.2,22.2,30.43,SE,141,4.0,5.0,23,0.00,,,0.00,39,Wunderground v.1.15,2013-04-26 22:26:00,
2013-04-26 18:32:00,60.4,23.4,30.43,WNW,292,2.0,4.0,24,0.00,,,0.00,39,Wunderground v.1.15,2013-04-26 22:32:00,
2013-04-26 18:37:00,60.5,21.4,30.43,SE,136,2.0,5.0,22,0.00,,,0.00,49,Wunderground v.1.15,2013-04-26 22:37:00,
2013-04-26 18:43:00,60.4,23.4,30.43,WNW,296,3.0,5.0,24,0.00,,,0.00,39,Wunderground v.1.15,2013-04-26 22:43:00,
2013-04-26 18:48:00,60.5,21.4,30.43,SE,124,3.0,6.0,22,0.00,,,0.00,42,Wunderground v.1.15,2013-04-26 22:48:00,
2013-04-26 18:54:00,60.8,23.7,30.43,WNW,296,3.0,4.0,24,0.00,,,0.00,42,Wunderground v.1.15,2013-04-26 22:54:00,
2013-04-26 18:59:00,61.2,23.1,30.43,West,279,3.0,4.0,23,0.00,,,0.00,81,Wunderground v.1.15,2013-04-26 22:59:00,
2013-04-26 19:05:00,61.3,23.1,30.43,West,277,2.0,5.0,23,0.00,,,0.00,76,Wunderground v.1.15,2013-04-26 23:05:00,
2013-04-26 19:11:00,61.3,24.2,30.43,WNW,286,2.0,2.0,24,0.00,,,0.00,58,Wunderground v.1.15,2013-04-26 23:11:00,
2013-04-26 19:17:00,61.1,21.9,30.43,West,280,2.0,5.0,22,0.00,,,0.00,44,Wunderground v.1.15,2013-04-26 23:17:00,
2013-04-26 19:22:00,60.8,22.7,30.44,WNW,300,2.0,4.0,23,0.00,,,0.00,32,Wunderground v.1.15,2013-04-26 23:22:00,
2013-04-26 19:28:00,60.4,23.4,30.44,WNW,288,2.0,4.0,24,0.00,,,0.00,23,Wunderground v.1.15,2013-04-26 23:28:00,
2013-04-26 19:33:00,59.9,23.9,30.44,WNW,291,2.0,3.0,25,0.00,,,0.00,18,Wunderground v.1.15,2013-04-26 23:33:00,
2013-04-26 19:39:00,59.5,23.6,30.44,WNW,290,2.0,4.0,25,0.00,,,0.00,12,Wunderground v.1.15,2013-04-26 23:39:00,
2013-04-26 19:45:00,59.0,24.1,30.44,WNW,294,2.0,4.0,26,0.00,,,0.00,11,Wunderground v.1.15,2013-04-26 23:45:00,
2013-04-26 19:50:00,58.8,23.0,30.44,WNW,294,2.0,2.0,25,0.00,,,0.00,7,Wunderground v.1.15,2013-04-26 23:50:00,
2013-04-26 20:06:00,57.9,25.0,30.45,WNW,292,1.0,2.0,28,0.00,,,0.00,0,Wunderground v.1.15,2013-04-27 00:06:00,
2013-04-26 20:13:00,57.4,23.7,30.45,WNW,292,1.0,1.0,27,0.00,,,0.00,0,Wunderground v.1.15,2013-04-27 00:13:00,
2013-04-26 20:19:00,57.0,24.2,30.45,WNW,290,1.0,2.0,28,0.00,,,0.00,0,Wunderground v.1.15,2013-04-27 00:19:00,
2013-04-26 20:24:00,56.8,24.0,30.45,WNW,290,1.0,1.0,28,0.00,,,0.00,0,Wunderground v.1.15,2013-04-27 00:24:00,
2013-04-26 20:29:00,56.5,24.6,30.45,WNW,290,1.0,1.0,29,0.00,,,0.00,0,Wunderground v.1.15,2013-04-27 00:29:00,
2013-04-26 20:35:00,56.4,25.3,30.45,NNE,31,1.0,2.0,30,0.00,,,0.00,0,Wunderground v.1.15,2013-04-27 00:35:00,
2013-04-26 20:40:00,56.0,24.2,30.45,NNW,327,2.0,2.0,29,0.00,,,0.00,0,Wunderground v.1.15,2013-04-27 00:40:00,
2013-04-26 20:46:00,55.9,24.9,30.46,NNW,327,1.0,2.0,30,0.00,,,0.00,0,Wunderground v.1.15,2013-04-27 00:46:00,
2013-04-26 20:51:00,55.6,26.2,30.46,SSW,200,1.0,1.0,32,0.00,,,0.00,0,Wunderground v.1.15,2013-04-27 00:51:00,
2013-04-26 20:57:00,55.5,26.8,30.46,SW,215,1.0,5.0,33,0.00,,,0.00,0,Wunderground v.1.15,2013-04-27 00:57:00,
2013-04-26 21:03:00,55.8,27.1,30.46,SW,228,3.0,6.0,33,0.00,,,0.00,0,Wunderground v.1.15,2013-04-27 01:03:00,
2013-04-26 21:09:00,55.8,27.8,30.46,South,185,3.0,6.0,34,0.00,,,0.00,0,Wunderground v.1.15,2013-04-27 01:09:00,
2013-04-26 21:14:00,55.6,27.6,30.46,NNW,327,2.0,3.0,34,0.00,,,0.00,0,Wunderground v.1.15,2013-04-27 01:14:00,
2013-04-26 21:20:00,55.3,28.1,30.46,WSW,251,1.0,1.0,35,0.00,,,0.00,0,Wunderground v.1.15,2013-04-27 01:20:00,
2013-04-26 21:26:00,55.0,27.8,30.46,WSW,242,1.0,5.0,35,0.00,,,0.00,0,Wunderground v.1.15,2013-04-27 01:26:00,
2013-04-26 21:32:00,54.8,26.9,30.47,East,83,1.0,1.0,34,0.00,,,0.00,0,Wunderground v.1.15,2013-04-27 01:32:00,
2013-04-26 21:37:00,54.6,27.5,30.47,SW,236,1.0,3.0,35,0.00,,,0.00,0,Wunderground v.1.15,2013-04-27 01:37:00,
2013-04-26 21:43:00,54.4,27.3,30.47,NW,313,1.0,1.0,35,0.00,,,0.00,0,Wunderground v.1.15,2013-04-27 01:43:00,
2013-04-26 21:49:00,54.2,27.8,30.47,SSE,156,1.0,1.0,36,0.00,,,0.00,0,Wunderground v.1.15,2013-04-27 01:49:00,
2013-04-26 21:55:00,54.1,27.0,30.47,West,275,1.0,1.0,35,0.00,,,0.00,0,Wunderground v.1.15,2013-04-27 01:55:00,
2013-04-26 22:00:00,53.9,27.5,30.47,WNW,294,1.0,1.0,36,0.00,,,0.00,0,Wunderground v.1.15,2013-04-27 02:00:00,
2013-04-26 22:06:00,53.7,28.0,30.48,WNW,292,1.0,1.0,37,0.00,,,0.00,0,Wunderground v.1.15,2013-04-27 02:06:00,
2013-04-26 22:12:00,53.3,27.0,30.48,WSW,242,0.0,2.0,36,0.00,,,0.00,0,Wunderground v.1.15,2013-04-27 02:12:00,
2013-04-26 22:18:00,53.3,27.0,30.48,North,5,1.0,2.0,36,0.00,,,0.00,0,Wunderground v.1.15,2013-04-27 02:18:00,
2013-04-26 22:24:00,53.3,27.7,30.48,North,5,1.0,2.0,37,0.00,,,0.00,0,Wunderground v.1.15,2013-04-27 02:24:00,
2013-04-26 22:30:00,53.1,28.1,30.48,North,5,1.0,1.0,38,0.00,,,0.00,0,Wunderground v.1.15,2013-04-27 02:30:00,
2013-04-26 22:35:00,52.8,28.5,30.48,North,5,0.0,1.0,39,0.00,,,0.00,0,Wunderground v.1.15,2013-04-27 02:35:00,
2013-04-26 22:41:00,52.4,27.5,30.48,North,5,0.0,0.0,38,0.00,,,0.00,0,Wunderground v.1.15,2013-04-27 02:41:00,
2013-04-26 22:46:00,52.1,30.8,30.48,North,5,0.0,1.0,44,0.00,,,0.00,0,Wunderground v.1.15,2013-04-27 02:46:00,
2013-04-26 22:52:00,51.6,32.0,30.48,North,5,0.0,0.0,47,0.00,,,0.00,0,Wunderground v.1.15,2013-04-27 02:52:00,
2013-04-26 22:58:00,51.3,31.7,30.48,North,5,0.0,0.0,47,0.00,,,0.00,0,Wunderground v.1.15,2013-04-27 02:58:00,
2013-04-26 23:04:00,50.9,29.7,30.48,North,5,0.0,1.0,44,0.00,,,0.00,0,Wunderground v.1.15,2013-04-27 03:04:00,
2013-04-26 23:10:00,50.7,29.0,30.48,North,5,0.0,1.0,43,0.00,,,0.00,0,Wunderground v.1.15,2013-04-27 03:10:00,
2013-04-26 23:16:00,50.5,28.8,30.48,North,5,0.0,1.0,43,0.00,,,0.00,0,Wunderground v.1.15,2013-04-27 03:16:00,
2013-04-26 23:21:00,50.5,28.2,30.49,North,360,0.0,1.0,42,0.00,,,0.00,0,Wunderground v.1.15,2013-04-27 03:21:00,
2013-04-26 23:27:00,50.4,28.7,30.49,SW,226,1.0,5.0,43,0.00,,,0.00,0,Wunderground v.1.15,2013-04-27 03:27:00,
2013-04-26 23:33:00,50.2,29.1,30.49,South,180,1.0,4.0,44,0.00,,,0.00,0,Wunderground v.1.15,2013-04-27 03:33:00,
2013-04-26 23:39:00,49.1,32.2,30.49,South,178,2.0,4.0,52,0.00,,,0.00,0,Wunderground v.1.15,2013-04-27 03:39:00,
2013-04-26 23:45:00,48.4,32.5,30.49,South,180,2.0,2.0,54,0.00,,,0.00,0,Wunderground v.1.15,2013-04-27 03:45:00,
2013-04-26 23:51:00,48.3,32.9,30.49,SSW,192,2.0,2.0,55,0.00,,,0.00,0,Wunderground v.1.15,2013-04-27 03:51:00,
2013-04-26 23:57:00,48.3,32.4,30.49,SSW,192,1.0,2.0,54,0.00,,,0.00,0,Wunderground v.1.15,2013-04-27 03:57:00,